Location: Roland
(31.1349°N, 85.4372°W)
Time: 16:40:06
(UTC+00:00)

Transit 2A - Pass Details

Date: 24 April 2021
Orbit: 602 x 957 km, 66.7° (Epoch: 16 May)

Event Time Altitude Azimuth Distance (km) Brightness Sun altitude
Rises 10:27:59 0° 182° (S) 3,192 9.0 -8.1°
Reaches altitude 10° 10:30:39 10° 173° (S) 2,209 8.3 -7.6°
Maximum altitude 10:35:04 32° 111° (ESE) 1,162 7.6 -6.7°
Drops below altitude 10° 10:39:09 10° 48° (NE) 2,047 9.5 -5.9°
Sets 10:41:32 0° 38° (NE) 2,921 10.1 -5.4°
